Location: Unspecified
(44.4377°N, 88.0525°W)
Time: 15:46:09
(UTC-05:00)

Okean 3 - Visible Passes

Search period start: 30 August 2016 00:00
Search period end: 09 September 2016 00:00
Orbit: 577 x 604 km, 82.5° (Epoch: 30 August)

Date Brightness Start Highest point End Pass type
(mag) Time Alt. Az. Time Alt. Az. Time Alt. Az.
31 Aug 6.6 04:59:32 10° ESE 05:01:49 14° E 05:04:08 10° NE visible
01 Sep 6.2 05:06:56 10° SE 05:10:08 21° E 05:13:19 10° NE visible
02 Sep 5.5 05:14:45 10° SSE 05:18:28 31° E 05:22:11 10° NNE visible
03 Sep 4.7 05:22:48 10° SSE 05:26:50 46° E 05:30:53 10° NNE visible
04 Sep 3.8 05:31:02 10° S 05:35:15 71° E 05:39:27 10° NNE visible
05 Sep 3.4 05:39:29 10° SSW 05:43:41 77° W 05:47:55 10° N visible
06 Sep 6.4 04:13:08 10° ESE 04:15:21 14° E 04:17:36 10° NE visible
06 Sep 3.7 05:48:05 10° SSW 05:52:11 50° WNW 05:56:17 10° N visible
07 Sep 6.0 04:20:30 10° SE 04:23:39 21° E 04:26:48 10° NE visible
08 Sep 5.3 04:28:17 10° SSE 04:31:59 30° E 04:35:40 10° NNE visible
